Regional Weather Roundup
Issued by NWS

Home | Current Version | Previous Version | Graphics & Text | Print | Product List | Glossary Off
Versions: 1 2 3 4 5 6 7 8 9 10 11 12 13 14 15 16 17 18 19 20 21 22 23 24 25 26 27 28 29 30 31 32 33 34 35 36 37 38 39 40 41 42 43 44 45 46 47 48 49 50

000
ASUS43 KMKX 252311
RWRWI

WISCONSIN REGIONAL WEATHER ROUNDUP
NATIONAL WEATHER SERVICE MILWAUKEE/SULLIVAN WI
600 PM CDT SUN JUN 25 2017

NOTE: "FAIR" INDICATES FEW OR NO CLOUDS BELOW 12,000 FEET WITH NO
SIGNIFICANT WEATHER AND/OR OBSTRUCTIONS TO VISIBILITY.

WIZ001-002-006>008-014>016-023>028-260000-
NORTHWEST WISCONSIN

CITY           SKY/WX    TMP DP  RH WIND       PRES   REMARKS
SUPERIOR ARPT  NOT AVBL
ASHLAND        CLOUDY    56  49  77 W8        30.08S
HAYWARD        LGT RAIN  54  48  80 W7        30.09R
SIREN          PTSUNNY   61  43  52 NW20      30.11R
CUMBERLAND     MOSUNNY   61  43  51 NW15G21   30.10S
RICE LAKE      MOSUNNY   60  48  65 W9        30.10F
CHETEK         CLOUDY    58  52  80 CALM      30.09F
LADYSMITH      PTSUNNY   61  47  62 NW12      30.08F
EAU CLAIRE     PTSUNNY   63  43  48 NW17G30   30.08S
MENOMONIE      MOSUNNY   63  46  52 NW12G28   30.09F
NEW RICHMOND   PTSUNNY   66  38  36 NW12G21   30.11S
OSCEOLA        CLOUDY    65  40  40 N15G21    30.13F
$$

WIZ003>005-009-010-017-018-260000-
NORTH CENTRAL WISCONSIN

CITY           SKY/WX    TMP DP  RH WIND       PRES   REMARKS
MANITOWISH WTR CLOUDY    51  51 100 NW10G18   30.04S
ARBOR VITAE    CLOUDY    56  54  92 NW10      30.03F
WOODRUFF       CLOUDY    56  54  92 NW10      30.03F
RHINELANDER    CLOUDY    55  52  89 NW12G17   30.04S
EAGLE RIVER    RAIN      53  52  95 NW7       30.02S
LAND O LAKES   LGT RAIN  54  53  97 W6        30.02F
PHILLIPS       CLOUDY    55  49  80 NW7       30.06S
TOMAHAWK       NOT AVBL
MEDFORD        PTSUNNY   55  50  81 N16       30.07R
MERRILL        CLOUDY    58  52  79 NW9G18    30.05S
$$

WIZ029-030-035-036-043>047-260000-
CENTRAL WISCONSIN

CITY           SKY/WX    TMP DP  RH WIND       PRES   REMARKS
WAUSAU         CLOUDY    58  50  75 NW13      30.03S
MOSINEE        PTSUNNY   57  54  88 NW12      30.06
MARSHFIELD     PTSUNNY   59  53  80 NW10      30.07S
STEVENS POINT  CLOUDY    57  54  89 W8        30.06S
WAUPACA        DRIZZLE   58  56  91 NW8       30.05R
WAUTOMA        LGT RAIN  56  53  90 NW10      30.07R
WISC RAPIDS    LGT RAIN  59  56  89 NW9       30.08F
CAMP DOUGLAS   CLOUDY    59  55  85 NW9       30.09S
$$

WIZ011>013-019>022-031-037>040-048>050-260000-
NORTHEAST WISCONSIN

CITY           SKY/WX    TMP DP  RH WIND       PRES   REMARKS
ANTIGO         CLOUDY    55  52  89 NW12G18   30.04S
SHAWANO        LGT RAIN  58  54  87 W6        30.01F
OCONTO         CLOUDY    59  53  81 NW7       29.99S
STURGEON BAY     N/A     62  51  67 W7G16       N/A
GREEN BAY      LGT RAIN  65  54  67 W12       30.01R
MANITOWOC      MOSUNNY   65  49  56 W16G25    30.01R
APPLETON       LGT RAIN  59  48  67 W12G18    30.02R
CLINTONVILLE   CLOUDY    59  50  72 NW9G16    30.03S
OSHKOSH        CLOUDY    63  49  60 W7G18     30.03S
$$

WIZ032>034-041-042-053>061-260000-
SOUTHWEST WISCONSIN

CITY           SKY/WX    TMP DP  RH WIND       PRES   REMARKS
LA CROSSE      SUNNY     72  46  39 W20G26    30.09F
SPARTA         CLOUDY    63  55  75 N5        30.10S
VIROQUA        MOSUNNY   64  52  64 W10G20    30.11S
BOSCOBEL       MOSUNNY   66  50  56 W13       30.12F
PRAIRIE DU CHI MOSUNNY   67  46  48 W12G20    30.12S
PLATTEVILLE    MOSUNNY   66  50  57 W16G26    30.13F
$$

WIZ056-057-062-063-064-067-068-260000-
SOUTH CENTRAL WISCONSIN

CITY           SKY/WX    TMP DP  RH WIND       PRES   REMARKS
REEDSBURG      DRIZZLE   55  53  91 NW10G21   30.11R
BARABOO/DELLS  RAIN      56  49  78 NW14G21   30.11R
LONE ROCK      CLOUDY    65  51  60 W16G23    30.10F
MINERAL POINT  CLOUDY    64  52  63 W15G23    30.11F
MADISON        PTSUNNY   64  50  60 W9        30.08S
MIDDLETON      CLOUDY    64  51  63 W16       30.09S
WATERTOWN      NOT AVBL
MONROE         PTSUNNY   63  48  59 W18       30.11S
JANESVILLE     PTSUNNY   66  48  52 W16G22    30.09S
$$

WIZ051-052-058>065-066-070>072-260000-
SOUTHEAST WISCONSIN

CITY           SKY/WX    TMP DP  RH WIND       PRES   REMARKS
MILWAUKEE      MOSUNNY   69  47  45 W15       30.04S
WAUKESHA       MOSUNNY   64  46  52 W15G22    30.07R
MILWAUKEE/TIMM MOSUNNY   66  45  45 W14G20    30.05S
RACINE         MOSUNNY   68  47  46 NW13G23   30.06S
KENOSHA        MOSUNNY   68  49  50 W17G23    30.05S
FOND DU LAC    CLOUDY    65  48  54 W18       30.04R
SHEBOYGAN      MOSUNNY   67  51  56 W17G25    30.01S
WEST BEND      MOSUNNY   64  46  52 W16G22    30.04S
JUNEAU         CLOUDY    64  49  59 W12G21    30.07S
$$

LSZ147-162-260000-
LAKE SUPERIOR

STATION/POSITION TIME  TEMP    WIND        PRES    WAVE
                       AIR SEA DIR/SP/G            HT/PER
                 (UTC) (F)     (DEG/KT/KT) (MB)    (FT/S)
W MID LAKE BUOY  2250   42 39  280/  8/ 10 1017.6R   0
DEVILS ISLAND    2300   49     270/  6/  7 1018.1F
SAXON HARBOR     2230   55     280/ 11/ 16 1017.6S
$$

LMZ867-665-643>646-260000-
LAKE MICHIGAN

STATION/POSITION TIME  TEMP    WIND        PRES    WAVE
                       AIR SEA DIR/SP/G            HT/PER
                 (UTC) (F)     (DEG/KT/KT) (MB)    (FT/S)
CHAMBERS ISLAND  2240   58     220/  3/  3 1015.2F
S GREEN BAY BUOY 2230   59     340/ 12/ 14 1015.4R
N MID LAKE BUOY  2250   58 57  210/ 10/ 10 1015.8R   1/ 5
NORTHPORT PIER   2240   61      CALM  /  4 1015.2R
KEWAUNEE LAKESHO 2236   55      80/  3/  4 1015.6R
SHEBOYGAN LAKESH 2300   67     280/ 14/ 18 1016.0R
PORT WASHINGTON  2240   69     260/ 13/ 21 1017.3S
ATWATER BUOY     2109   65 57  270/ 14/ 19 1017.3F
MILWAUKEE LAKESH 2250   67     270/ 13/ 16   N/A
S MID LAKE BUOY  2250   63 62  260/  8/  8 1017.2F   1/ 4
KENOSHA   LAKESH 2300   67     280/ 13/ 21 1017.3
$$

TC  - TEMPERATURE IN CELSIUS
VSB - VISIBILITY IN STATUTE MILES
WCI - WIND CHILL INDEX
HX  - HEAT INDEX





USA.gov is the U.S. government's official web portal to all federal, state and local government web resources and services.